Preview of NWS' New Version of Forecast
This preview is not operational and should not be used for support decisions.

Regional Weather Roundup (RWR)

Issued by National Weather Service (NWS)

                            
000
ASUS43 KLSX 181357
RWRMO 

WEATHER SUMMARY FOR MISSOURI
NATIONAL WEATHER SERVICE SPRINGFIELD MO
900 AM CDT THU JUL 18 2019

NOTE: "FAIR" INDICATES FEW OR NO CLOUDS BELOW 12,000 FEET WITH NO
       SIGNIFICANT WEATHER AND/OR OBSTRUCTIONS TO VISIBILITY.
       CURRENT SKY AND/OR WEATHER CONDITIONS ARE NOT AVAILABLE FOR
       CHILLICOTHE AND FARMINGTON.

MOZ001>031-035>038-043-044-053-054-181500-
...NORTHERN AND WESTERN MISSOURI...
  
CITY           SKY/WX    TMP DP  RH WIND       PRES   REMARKS
KANSAS CTY INT PTSUNNY   82  73  74 SW17G26   29.86R                  
LEE'S SUMMIT   LGT RAIN  83  72  69 SW17G30   29.88R                  
ST JOSEPH      SUNNY     83  72  69 SW12      29.83F                  
CHILLICOTHE      N/A     85  74  69 VRB7      29.86R HX  92           
     
$$
MOZ066>068-077>081-088>096-101>105-181500-
...SOUTHWEST MISSOURI...
  
CITY           SKY/WX    TMP DP  RH WIND       PRES   REMARKS
SPRINGFIELD    SUNNY     82  73  74 SW16      29.97F                  
JOPLIN         SUNNY     83  74  74 S16G26    29.95S                  
BRANSON        SUNNY     82  73  74 SW9       30.02S                  
               
$$
MOZ032>034-039>042-045>050-055>058-069>072-181500-
...CENTRAL MISSOURI...  
  
CITY           SKY/WX    TMP DP  RH WIND       PRES   REMARKS
COLUMBIA       NOT AVBL                                               
ROLLA          SUNNY     80  73  79 SW13G24   29.97R                  
SEDALIA        SUNNY     80  73  79 SW18G31   29.92R                  
WARRENSBURG    SUNNY     81  72  74 S16       29.89S                  
               
$$
MOZ051-052-059>065-181500-
...EAST CENTRAL MISSOURI...
  
CITY           SKY/WX    TMP DP  RH WIND       PRES   REMARKS
ST LOUIS INTL  NOT AVBL                                               
                   
$$
MOZ072>076-082>087-097>100-106>115-181500-
...SOUTH CENTRAL AND SOUTHEAST MISSOURI...
  
CITY           SKY/WX    TMP DP  RH WIND       PRES   REMARKS
CAPE GIRARDEAU FAIR      76  71  85 S6        30.00S                  
POPLAR BLUFF   FAIR      76  75  97 S5        29.99F                  
WEST PLAINS    SUNNY     81  74  79 SW7       30.03R                  
                                       
$$